Date,TemperatureHighF,TemperatureAvgF,TemperatureLowF,DewpointHighF,DewpointAvgF,DewpointLowF,HumidityHigh,HumidityAvg,HumidityLow,PressureMaxIn,PressureMinIn,WindSpeedMaxMPH,WindSpeedAvgMPH,GustSpeedMaxMPH,PrecipitationSumIn
2013-1-11,28.9,23.0,17.7,17.0,14.0,9.0,79,69,53,30.22,30.07,11,4,0,0.00
2013-1-12,27.5,19.1,12.2,14.0,9.6,5.0,77,67,46,30.35,30.21,6,3,0,0.00
2013-1-13,30.6,20.3,11.2,12.0,7.7,5.0,80,60,35,30.42,30.32,6,2,0,0.00
2013-1-14,43.0,28.8,16.7,24.0,13.7,3.0,72,55,33,30.43,30.34,6,2,0,0.00
2013-1-15,51.6,38.0,24.9,26.0,20.5,9.0,81,54,21,30.55,30.42,7,2,0,0.00
2013-1-16,58.6,45.5,35.1,25.0,16.1,6.0,44,31,22,30.51,30.35,9,2,0,0.00
2013-1-17,52.2,38.0,27.1,24.0,20.5,17.0,70,51,32,30.37,30.27,8,2,0,0.00
2013-1-18,52.3,37.2,25.6,24.0,20.8,17.0,72,53,32,30.32,30.25,5,1,0,0.00
2013-1-19,55.1,41.2,31.4,24.0,19.7,14.0,54,43,27,30.31,30.23,6,1,0,0.00
2013-1-20,49.8,37.2,26.8,21.0,18.4,15.0,62,48,28,30.34,30.25,8,2,0,0.00
2013-1-21,50.5,34.5,24.9,21.0,18.1,14.0,67,53,30,30.26,30.14,6,2,0,0.00
2013-1-22,44.3,30.6,24.6,24.0,19.1,15.0,82,64,40,30.15,30.01,6,1,0,0.00
2013-1-23,50.8,36.9,26.6,37.0,27.7,20.0,89,70,45,30.06,29.81,15,3,0,0.00
2013-1-24,49.4,40.7,34.3,36.0,33.2,31.0,90,76,58,30.10,30.02,7,2,0,0.00
2013-1-25,48.3,42.2,36.0,39.0,36.8,33.0,94,81,71,30.05,29.81,13,4,0,0.02
2013-1-26,39.8,33.7,27.8,34.0,25.5,19.0,95,73,56,29.96,29.80,12,3,0,0.01
2013-1-27,38.7,31.4,25.8,26.0,21.9,15.0,84,69,41,30.04,29.95,7,2,0,0.00
2013-1-28,37.9,34.0,29.5,26.0,24.1,23.0,84,68,57,30.04,29.95,16,7,0,0.00
2013-2-8,39.5,33.4,25.3,21.0,18.6,16.0,76,56,39,30.12,30.06,11,4,0,0.00
2013-2-9,43.4,32.9,23.3,28.0,21.9,12.0,83,65,55,30.17,30.07,13,4,0,0.00
2013-2-10,44.6,36.2,28.6,28.0,22.9,20.0,86,61,38,30.21,30.14,8,3,0,0.00
2013-2-11,48.7,38.2,30.4,32.0,24.4,17.0,75,58,42,30.24,30.11,16,5,0,0.00
2013-2-12,48.7,39.0,32.5,32.0,26.9,24.0,76,63,39,30.34,30.25,16,4,0,0.00
2013-2-13,46.7,39.4,32.5,33.0,29.8,27.0,83,69,51,30.36,30.28,8,2,0,0.00
2013-2-14,53.8,41.8,31.0,36.0,32.4,27.0,86,71,48,30.43,30.35,7,2,0,0.00
2013-2-15,54.6,42.5,33.1,38.0,35.0,30.0,96,76,52,30.40,30.16,8,2,0,0.00
2013-2-16,52.1,40.9,31.4,35.0,28.8,20.0,82,63,34,30.16,30.01,20,5,0,0.00
2013-2-17,44.1,33.6,25.7,25.0,20.7,17.0,77,61,35,30.11,29.99,13,2,0,0.00
2013-2-18,38.0,31.7,26.3,26.0,22.9,20.0,85,71,53,29.98,29.67,6,2,0,0.00
2013-2-19,40.2,31.5,25.0,24.0,21.7,18.0,80,68,47,29.88,29.60,9,3,0,0.00
2013-2-20,40.5,32.3,25.6,25.0,21.3,16.0,82,65,46,29.98,29.89,10,3,0,0.00
2013-2-21,40.3,32.3,24.8,25.0,22.1,19.0,86,68,47,30.09,29.98,8,2,0,0.00
2013-2-22,43.7,35.9,27.7,33.0,27.6,22.0,92,72,60,30.08,29.76,22,7,0,0.00
2013-2-23,36.5,30.0,24.4,25.0,20.4,17.0,90,69,47,30.31,29.92,21,6,0,0.00
2013-2-24,46.9,33.7,22.6,28.0,22.1,15.0,81,63,45,30.34,30.01,7,3,0,0.00
2013-2-25,39.3,34.3,27.0,31.0,23.3,13.0,88,65,37,30.23,29.92,25,8,0,0.00
2013-2-26,48.2,35.5,22.7,22.0,15.6,10.0,79,48,24,30.30,30.17,11,4,0,0.00
2013-2-27,48.3,39.7,32.3,32.0,23.7,16.0,73,54,41,30.22,30.15,10,3,0,0.00
2013-2-28,53.9,45.3,38.3,39.0,36.7,30.0,86,72,56,30.34,30.12,11,3,0,0.00
2013-3-1,58.7,47.8,38.1,38.0,35.0,29.0,87,64,41,30.36,30.18,9,3,0,0.00
2013-3-2,55.3,46.5,37.5,35.0,32.4,27.0,80,59,34,30.18,29.96,11,3,0,0.00
2013-3-3,43.2,35.3,28.6,33.0,20.1,5.0,87,58,22,30.14,29.96,10,3,0,0.00
2013-3-4,49.8,35.4,23.9,21.0,17.8,15.0,74,51,27,30.14,29.89,14,3,0,0.00
2013-3-5,41.0,33.4,29.2,31.0,24.1,18.0,95,70,54,29.90,29.61,9,2,0,0.00
2013-3-6,38.9,33.0,29.2,35.0,28.0,22.0,96,83,61,29.88,29.45,10,2,0,0.18
2013-3-7,44.6,35.4,27.7,30.0,24.4,20.0,92,66,45,29.97,29.88,9,4,0,0.00
2013-3-8,44.0,35.4,29.5,33.0,27.6,23.0,94,74,52,30.11,29.91,12,4,0,0.02
2013-3-9,51.8,41.1,30.2,23.0,18.6,13.0,62,42,24,30.37,30.12,14,5,0,0.00
2013-3-10,58.1,45.1,33.7,39.0,25.0,7.0,76,47,25,30.37,30.22,11,3,0,0.00
2013-3-11,54.0,45.5,38.1,40.0,37.2,33.0,87,73,57,30.26,30.11,11,3,0,0.00
2013-3-12,62.9,48.1,38.4,41.0,34.6,29.0,87,63,29,30.14,30.00,7,2,0,0.00
2013-3-13,65.4,52.0,45.3,39.0,33.4,28.0,60,50,33,30.08,29.98,7,2,0,0.00
2013-3-14,65.1,53.8,43.1,37.0,28.4,12.0,67,42,15,30.03,29.90,15,4,0,0.00
2013-3-15,58.0,47.1,39.9,38.0,33.9,30.0,82,62,42,30.07,30.00,14,3,0,0.00
2013-3-16,51.1,40.5,32.0,35.0,30.8,25.0,93,70,43,30.03,29.82,19,5,0,0.00
2013-3-17,40.1,32.1,24.0,28.0,21.5,17.0,86,67,45,30.13,29.90,18,5,0,0.00
2013-3-18,50.4,37.3,27.1,26.0,19.5,3.0,82,54,15,30.17,30.07,12,3,0,0.00
2013-3-19,47.7,39.0,30.8,41.0,28.4,21.0,88,67,44,30.09,29.67,10,2,0,0.08
2013-3-20,47.0,40.1,29.7,41.0,33.7,22.0,90,78,46,29.97,29.49,29,9,0,0.16
2013-3-21,39.8,31.9,24.7,26.0,19.2,15.0,85,61,37,30.16,29.98,19,7,0,0.00
2013-3-22,35.7,29.5,24.4,23.0,18.8,14.0,90,66,43,30.27,30.13,18,8,0,0.00
2013-3-23,42.9,32.0,22.8,21.0,18.8,16.0,81,60,40,30.28,30.17,9,2,0,0.00
2013-3-24,47.1,35.9,28.1,26.0,22.5,19.0,72,59,40,30.20,30.05,7,2,0,0.00
2013-3-25,47.5,39.5,31.2,30.0,26.8,24.0,74,61,49,30.05,29.84,11,2,0,0.00
2013-3-26,46.4,40.3,35.4,38.0,35.7,31.0,93,83,71,29.89,29.84,9,2,0,0.03
2013-3-27,54.0,44.2,35.4,42.0,37.4,33.0,93,78,49,29.89,29.79,13,3,0,0.03
2013-3-28,55.4,45.5,39.3,43.0,40.3,38.0,94,82,60,30.02,29.89,15,3,0,0.06
2013-3-29,60.8,49.5,40.2,44.0,40.8,38.0,91,74,49,30.10,30.02,8,2,0,0.00
2013-3-30,68.2,54.4,39.1,43.0,40.9,35.0,90,63,35,30.09,29.92,10,4,0,0.00
2013-3-31,64.8,53.8,44.3,44.0,38.9,34.0,78,59,37,29.92,29.75,14,5,0,0.00
2013-4-1,60.7,51.1,42.7,43.0,39.9,37.0,82,67,46,29.98,29.80,19,7,0,0.00
2013-4-2,60.7,47.7,38.7,42.0,37.4,35.0,85,70,45,30.04,29.97,13,4,0,0.00
2013-4-3,64.6,52.9,39.9,39.0,35.2,31.0,83,54,29,30.03,29.82,12,4,0,0.00
2013-4-4,61.2,51.4,41.5,42.0,37.7,34.0,88,61,45,29.81,29.57,22,5,0,0.07
2013-4-5,52.1,45.6,40.5,38.0,36.2,34.0,87,70,53,29.84,29.72,16,6,0,0.00
2013-4-6,52.6,44.3,39.0,38.0,34.7,29.0,88,70,47,29.86,29.71,17,6,0,0.02
2013-4-7,46.1,40.5,32.4,37.0,29.1,22.0,90,65,41,29.76,29.52,43,10,0,0.04
2013-4-8,45.5,37.4,29.7,28.0,24.9,20.0,76,62,46,30.17,29.76,23,9,0,0.00
2013-4-9,56.2,43.4,30.8,38.0,28.6,20.0,78,59,25,30.25,30.16,14,4,0,0.00
2013-4-10,58.0,47.4,36.1,44.0,36.6,31.0,84,67,46,30.15,29.96,32,8,0,0.00
2013-4-11,52.3,40.7,30.0,31.0,26.7,22.0,85,60,35,30.13,30.03,14,4,0,0.00
2013-4-12,59.9,44.4,27.3,35.0,28.0,17.0,84,57,19,30.04,29.62,17,5,0,0.00
2013-4-13,47.8,39.7,31.1,33.0,20.6,5.0,70,48,23,29.93,29.60,33,12,0,0.00
2013-4-14,40.4,32.9,26.3,28.0,22.4,17.0,87,66,53,29.95,29.80,16,4,0,0.00
2013-4-15,36.5,31.5,28.2,32.0,28.2,24.0,95,88,74,30.07,29.81,17,5,0,0.15
2013-4-16,40.4,33.5,29.4,31.0,28.5,24.0,94,82,55,30.30,30.07,14,6,0,0.06
2013-4-17,47.4,38.3,29.6,27.0,21.8,15.0,80,53,33,30.40,30.30,19,6,0,0.00
2013-4-18,56.4,45.5,33.4,39.0,32.8,25.0,76,62,49,30.33,30.19,16,4,0,0.00
2013-4-19,56.0,47.2,39.2,41.0,36.9,34.0,83,69,47,30.19,29.99,28,9,0,0.01
2013-4-20,55.0,45.7,33.1,35.0,31.2,26.0,88,60,33,30.15,30.07,21,5,0,0.00
2013-4-21,59.1,46.6,36.5,38.0,34.5,29.0,85,64,42,30.10,30.02,24,8,0,0.00
2013-4-22,50.9,42.4,35.9,36.0,26.0,17.0,87,57,28,30.32,30.11,13,5,0,0.00
2013-4-23,61.5,45.7,31.0,17.0,12.5,2.0,47,29,10,30.31,30.02,18,4,0,0.00
2013-4-24,67.0,50.8,36.6,22.0,17.1,14.0,42,28,13,30.18,29.91,10,4,0,0.00
2013-4-25,69.4,58.3,46.3,35.0,26.6,13.0,41,30,22,29.98,29.86,22,7,0,0.00
2013-4-26,75.1,61.2,47.8,36.0,30.4,17.0,49,34,11,30.07,29.98,25,5,0,0.00
2013-4-27,70.2,58.7,46.0,36.0,28.8,21.0,58,34,16,30.08,29.96,19,6,0,0.00
2013-4-28,62.5,52.0,41.6,36.0,30.8,22.0,69,47,21,30.03,29.93,22,6,0,0.00
2013-4-29,53.2,47.1,34.6,40.0,32.2,24.0,78,58,39,29.94,29.81,29,11,0,0.00
2013-4-30,48.6,37.5,25.9,24.0,19.9,16.0,74,52,28,30.32,29.94,20,5,0,0.00
2013-5-1,61.2,45.4,28.4,24.0,20.1,13.0,72,41,15,30.44,30.33,12,4,0,0.00
2013-5-2,73.4,57.3,40.7,26.0,18.3,2.0,49,26,6,30.43,30.11,11,4,0,0.00
2013-5-3,68.6,59.3,50.3,32.0,28.3,23.0,40,31,21,30.13,30.00,18,5,0,0.00
2013-5-4,66.0,57.4,49.2,34.0,30.3,28.0,47,36,26,30.02,29.78,23,8,0,0.00
2013-5-5,70.0,58.8,47.3,35.0,32.1,29.0,52,38,26,29.79,29.63,13,7,0,0.00
2013-5-6,76.7,64.8,53.5,42.0,34.4,30.0,46,34,21,29.70,29.56,15,6,0,0.00
2013-5-7,75.0,63.7,51.5,45.0,40.7,34.0,62,45,23,29.77,29.64,21,6,0,0.00
2013-5-8,78.9,62.5,49.5,47.0,41.2,34.0,71,49,20,29.90,29.77,15,3,0,0.00
2013-5-9,79.7,65.7,53.9,46.0,42.4,37.0,68,46,22,29.95,29.86,27,4,0,0.00
2013-5-10,82.5,68.4,55.3,53.0,44.3,39.0,61,44,22,29.99,29.91,13,3,0,0.02
2013-5-11,85.6,71.1,58.3,53.0,47.4,40.0,61,45,20,30.00,29.82,14,4,0,0.00
2013-5-12,80.0,68.4,57.6,51.0,45.6,39.0,75,46,26,29.86,29.76,22,5,0,0.00
2013-5-13,68.4,56.5,43.3,49.0,41.5,32.0,82,59,36,29.98,29.80,32,6,0,0.00
2013-5-14,63.9,51.7,38.8,40.0,36.7,34.0,85,60,33,30.01,29.91,15,4,0,0.00
2013-5-15,59.5,50.6,41.9,46.0,38.0,34.0,86,64,41,29.95,29.84,12,3,0,0.01
2013-5-16,58.4,47.6,40.3,46.0,40.6,37.0,91,78,49,29.89,29.77,14,3,0,0.03
2013-5-17,55.7,46.9,40.1,42.0,38.7,36.0,95,75,49,29.95,29.82,20,5,0,0.03
2013-5-18,55.7,46.0,36.7,41.0,36.0,32.0,88,69,50,30.14,29.96,24,6,0,0.01
2013-5-19,60.6,49.9,37.7,39.0,35.1,30.0,78,59,39,30.23,30.14,14,5,0,0.00
2013-5-20,75.7,57.5,40.5,43.0,36.2,29.0,80,50,19,30.17,29.72,15,4,0,0.00
2013-5-21,53.6,46.0,32.7,40.0,31.3,24.0,80,58,36,29.79,29.55,27,8,0,0.00
2013-5-22,46.5,39.0,28.8,29.0,25.8,20.0,77,60,46,29.88,29.79,15,4,0,0.00
2013-5-23,53.5,43.7,32.7,33.0,29.6,26.0,80,59,38,29.90,29.84,13,4,0,0.00
2013-5-24,54.8,45.0,34.6,35.0,32.3,28.0,89,64,37,29.93,29.85,18,5,0,0.00
2013-5-25,61.9,48.5,33.7,45.0,35.4,29.0,92,64,34,29.93,29.82,10,4,0,0.04
2013-5-26,60.2,49.8,43.4,45.0,41.1,35.0,96,74,41,29.90,29.81,13,3,0,0.15
2013-5-27,58.6,49.2,39.4,47.0,40.3,34.0,85,72,53,29.86,29.65,17,5,0,0.02
2013-5-28,63.6,52.6,42.3,42.0,38.1,32.0,88,61,32,29.76,29.61,16,3,0,0.02
2013-5-29,58.4,50.3,43.3,44.0,38.2,30.0,95,66,35,29.86,29.52,28,5,0,0.13
2013-5-30,56.9,46.9,34.1,37.0,34.4,31.0,88,64,44,30.09,29.86,17,5,0,0.00
2013-5-31,69.5,53.8,38.4,37.0,35.2,30.0,85,54,27,30.16,30.06,12,4,0,0.00
2013-6-1,73.0,60.5,46.0,46.0,39.3,32.0,74,49,26,30.09,29.82,19,5,0,0.00
2013-6-2,68.8,57.6,46.0,46.0,39.7,29.0,86,56,23,29.87,29.77,16,6,0,0.00
2013-6-3,75.4,59.7,42.9,40.0,34.8,26.0,77,45,20,29.91,29.82,12,3,0,0.00
2013-6-4,76.7,64.2,48.8,39.0,33.2,25.0,52,33,21,29.92,29.83,12,4,0,0.00
2013-6-5,84.3,70.5,55.3,49.0,41.2,37.0,55,37,19,29.88,29.74,16,5,0,0.00
2013-6-6,84.8,70.7,57.1,53.0,47.5,41.0,65,46,22,29.80,29.70,16,5,0,0.00
2013-6-7,79.8,67.7,56.2,51.0,46.5,42.0,72,49,30,29.87,29.77,22,7,0,0.00
2013-6-8,84.0,69.2,51.8,45.0,39.6,23.0,71,38,13,29.88,29.79,16,5,0,0.00
2013-6-9,80.3,66.4,53.9,45.0,39.3,29.0,65,41,16,29.81,29.65,19,5,0,0.00
2013-6-10,76.0,59.7,46.8,38.0,33.7,25.0,64,41,19,29.71,29.59,17,4,0,0.00
2013-6-11,59.1,50.7,40.3,39.0,35.3,32.0,81,58,38,29.96,29.70,18,6,0,0.00
2013-6-12,59.2,46.4,36.3,36.0,33.5,30.0,81,63,41,29.99,29.95,16,4,0,0.00
2013-7-25,93.6,85.7,72.9,44.0,33.8,-99.9,23,16,12,29.83,29.74,17,-13,0,0.00
2013-7-26,92.4,80.1,66.9,44.0,30.9,12.0,34,18,7,29.85,29.75,21,6,0,0.00
2013-7-27,81.9,70.9,58.2,42.0,34.6,22.0,48,28,12,29.86,29.71,19,5,0,0.00
2013-7-28,78.7,66.1,50.4,43.0,34.1,22.0,57,34,16,29.77,29.68,23,6,0,0.00
2013-7-29,83.3,67.2,52.0,46.0,40.2,33.0,59,40,17,29.80,29.68,18,4,0,0.00
2013-7-30,84.3,68.6,54.1,47.0,38.2,24.0,66,38,12,29.91,29.80,18,3,0,0.00
2013-7-31,82.1,69.4,61.3,49.0,42.6,34.0,59,40,19,29.89,29.73,27,4,0,0.01
2013-8-1,70.8,60.1,51.1,56.0,46.3,40.0,92,62,41,29.89,29.75,16,4,0,0.23
2013-8-2,76.1,60.2,46.8,46.0,42.5,37.0,80,55,25,29.95,29.86,14,4,0,0.00
2013-8-3,81.3,67.4,51.8,47.0,41.3,33.0,72,44,18,29.92,29.80,11,4,0,0.00
2013-8-4,85.5,72.5,58.8,48.0,45.0,41.0,58,39,21,29.85,29.69,15,5,0,0.00
2013-8-5,86.4,73.6,62.5,50.0,45.0,35.0,54,38,17,29.79,29.68,17,5,0,0.00
2013-8-6,89.8,74.2,59.5,50.0,43.3,37.0,57,36,16,29.79,29.68,19,5,0,0.00
2013-8-7,83.1,71.8,61.1,45.0,41.1,35.0,47,34,19,29.80,29.72,17,4,0,0.00
2013-8-8,84.6,71.6,57.5,50.0,42.7,39.0,52,37,21,29.78,29.68,12,3,0,0.00
2013-8-9,82.9,67.7,56.9,56.0,48.9,43.0,79,54,26,29.77,29.61,19,4,0,0.14
2013-8-10,72.6,62.3,53.9,52.0,48.3,45.0,74,61,42,29.88,29.75,17,4,0,0.00
2013-8-11,75.0,62.9,50.6,52.0,47.4,42.0,81,59,35,29.89,29.79,16,4,0,0.00
2013-8-12,81.7,66.4,55.8,57.0,50.1,46.0,77,59,29,29.86,29.75,14,4,0,0.14
2013-8-13,86.0,69.7,54.4,51.0,45.9,41.0,71,46,21,29.89,29.75,17,4,0,0.00
2013-8-14,86.1,73.5,62.5,50.0,45.7,40.0,53,38,24,29.79,29.65,13,5,0,0.00
2013-8-15,85.2,70.7,59.2,54.0,48.6,44.0,66,48,24,29.79,29.67,16,3,0,0.00
2013-8-16,81.8,70.3,60.5,58.0,54.7,52.0,75,59,40,29.84,29.74,16,4,0,0.01
2013-8-17,82.1,69.4,55.9,54.0,52.0,49.0,79,56,34,29.87,29.75,30,4,0,0.00
2013-8-18,86.1,70.0,53.9,52.0,47.2,40.0,75,48,24,29.92,29.81,15,4,0,0.00
2013-8-19,86.0,71.6,57.3,51.0,47.3,44.0,64,45,23,29.88,29.75,20,4,0,0.00
2013-8-20,83.3,69.5,53.6,49.0,37.3,18.0,76,39,10,29.88,29.78,12,4,0,0.00
2013-8-21,83.1,71.1,61.3,43.0,35.1,29.0,45,28,17,29.84,29.74,10,4,0,0.00
2013-8-22,81.3,67.4,57.5,56.0,45.4,35.0,74,48,30,29.78,29.69,14,3,0,0.01
2013-8-23,78.4,66.1,53.1,52.0,49.0,46.0,81,57,32,29.73,29.63,10,4,0,0.00
2013-8-24,75.4,62.4,52.3,53.0,49.6,44.0,85,66,35,29.73,29.60,14,3,0,0.01
2013-8-25,68.7,39.9,55.3,56.0,1.6,-99.9,89,51,56,29.74,0.00,16,-328,0,0.40
2013-8-26,74.3,37.3,57.3,51.0,-18.4,-99.9,69,28,36,29.78,0.00,14,-445,0,0.00
2013-8-27,79.6,64.8,50.7,53.0,48.4,43.0,83,59,28,29.80,29.61,16,4,0,0.00
2013-8-28,84.5,69.2,57.8,54.0,49.2,41.0,76,53,22,29.71,29.63,13,4,0,0.00
2013-8-29,80.6,68.4,59.8,56.0,50.9,43.0,77,57,28,29.87,29.68,14,3,0,0.00
2013-8-30,79.7,65.9,49.7,55.0,51.5,46.0,91,63,33,29.96,29.83,11,4,0,0.00
2013-8-31,85.4,69.9,55.7,54.0,51.0,48.0,79,55,28,29.89,29.67,13,4,0,0.00
2013-9-1,90.6,73.7,60.9,53.0,44.3,26.0,66,40,10,29.69,29.52,16,5,0,0.00
2013-9-2,84.6,66.8,54.9,53.0,49.0,34.0,80,57,17,29.72,29.60,18,5,0,0.00
2013-9-3,80.4,64.6,53.4,52.0,48.7,34.0,86,61,19,29.81,29.72,16,4,0,0.00
2013-9-4,81.5,64.9,54.3,51.0,47.4,35.0,79,57,19,29.82,29.74,23,4,0,0.00
2013-9-5,70.7,57.8,48.2,51.0,47.9,44.0,85,71,47,29.91,29.68,23,3,0,0.23
2013-9-6,68.2,57.5,48.3,51.0,47.4,44.0,93,71,51,30.01,29.91,14,4,0,0.01
2013-9-7,75.7,61.1,45.6,52.0,48.2,44.0,93,66,37,29.99,29.83,11,3,0,0.01
2013-9-8,74.4,64.0,54.9,51.0,48.5,44.0,79,59,38,29.91,29.86,11,4,0,0.00
2013-9-9,81.9,69.4,55.2,48.0,43.7,38.0,67,42,22,29.88,29.75,12,4,0,0.00
2013-9-10,84.3,72.2,59.6,50.0,45.2,40.0,58,40,22,29.78,29.70,13,4,0,0.00
2013-9-11,86.8,73.7,63.0,50.0,46.0,42.0,55,39,21,29.82,29.73,12,5,0,0.00
2013-9-12,88.7,76.7,67.0,50.0,44.7,40.0,45,33,19,29.79,29.65,12,5,0,0.00
2013-9-13,81.2,74.4,66.4,55.0,42.8,32.0,58,33,24,29.70,29.58,9,3,0,0.00
2013-9-14,87.7,74.6,63.4,52.0,47.5,44.0,58,40,23,29.63,29.51,10,3,0,0.00
2013-9-15,88.1,71.4,54.1,52.0,44.8,29.0,72,42,12,29.61,29.40,13,4,0,0.00
2013-9-16,67.6,57.4,50.5,47.0,45.0,42.0,80,65,46,29.74,29.61,13,4,0,0.00
2013-9-17,56.2,51.1,47.2,48.0,43.2,39.0,88,75,62,29.87,29.66,26,6,0,0.03
2013-9-18,65.0,52.8,42.8,40.0,37.3,34.0,79,58,34,29.97,29.87,8,3,0,0.03
2013-9-19,78.6,59.2,40.8,39.0,35.1,28.0,79,46,16,29.94,29.69,13,4,0,0.00
2013-9-20,74.1,58.5,48.6,46.0,38.5,30.0,76,50,21,29.68,29.41,22,6,0,0.00
2013-9-21,61.9,52.7,45.8,44.0,39.7,37.0,81,63,41,29.64,29.50,14,5,0,0.00
2013-9-22,61.3,50.2,40.5,46.0,40.8,37.0,89,71,51,29.73,29.60,17,5,0,0.00
2013-9-23,60.6,51.1,41.5,43.0,40.3,36.0,82,68,49,29.85,29.72,12,3,0,0.00
2013-9-24,51.8,46.7,40.8,46.0,40.0,36.0,93,78,59,29.84,29.71,19,3,0,0.02
2013-9-25,51.5,43.3,36.5,38.0,35.0,32.0,93,74,49,29.89,29.70,16,5,0,0.02
2013-9-26,52.9,44.6,37.3,38.0,33.2,28.0,82,65,50,30.06,29.89,15,6,0,0.00
2013-9-27,61.7,48.1,35.6,44.0,33.7,27.0,77,60,27,30.07,29.88,12,4,0,0.00
2013-9-28,60.8,53.1,45.2,52.0,46.3,43.0,91,79,58,29.87,29.45,25,9,0,0.43
2013-9-29,51.2,46.1,41.5,48.0,40.8,33.0,96,83,51,29.62,29.40,21,8,0,0.92
2013-9-30,51.3,45.2,37.4,45.0,35.6,31.0,91,70,52,29.90,29.48,18,6,0,0.96
2013-10-1,49.7,42.3,35.8,39.0,33.0,27.0,87,71,48,30.10,29.88,20,5,0,0.01
2013-10-2,48.7,38.8,29.9,34.0,29.8,25.0,85,71,46,30.09,29.95,18,4,0,0.01
2013-10-3,50.4,41.3,33.4,34.0,31.5,29.0,86,69,51,30.34,30.05,12,3,0,0.01
2013-10-4,58.6,46.6,37.1,34.0,30.1,25.0,76,56,29,30.41,30.30,11,3,0,0.00
2013-10-5,72.9,52.8,37.2,37.0,31.7,26.0,72,49,18,30.30,30.10,11,3,0,0.00
2013-10-6,73.5,57.5,45.8,37.0,32.9,29.0,58,41,23,30.10,29.83,12,3,0,0.00
2013-10-7,55.5,49.2,37.4,37.0,29.7,19.0,79,50,24,29.96,29.77,21,6,0,0.00
2013-10-8,50.1,41.1,34.2,38.0,33.1,28.0,92,74,48,29.98,29.84,11,4,0,0.01
2013-10-9,42.5,38.8,35.6,35.0,33.8,33.0,93,83,72,29.98,29.89,13,5,0,0.01
2013-10-10,54.9,44.8,36.1,35.0,32.2,28.0,82,63,44,29.94,29.84,25,6,0,0.00
2013-10-11,52.3,44.4,36.2,37.0,34.3,31.0,82,68,52,30.00,29.94,9,2,0,0.00
2013-10-12,47.0,41.1,37.0,38.0,35.8,33.0,90,81,64,30.06,29.92,8,3,0,0.01
2013-10-13,49.8,43.2,39.2,38.0,35.9,33.0,94,77,53,30.22,30.05,8,4,0,0.01
2013-10-14,53.9,44.5,36.7,35.0,32.1,28.0,79,63,43,30.30,30.21,11,4,0,0.00
2013-10-15,60.1,45.8,35.3,33.0,29.1,26.0,71,55,32,30.29,30.07,12,4,0,0.00
2013-10-16,61.4,48.8,36.0,34.0,29.1,25.0,69,49,30,30.07,29.99,10,3,0,0.00
2013-10-17,60.0,48.9,39.2,36.0,33.2,31.0,78,57,35,30.14,30.07,10,3,0,0.00
2013-10-18,62.4,49.8,38.6,37.0,35.4,32.0,79,59,39,30.15,30.05,6,3,0,0.00
2013-10-19,74.8,56.5,39.8,39.0,32.3,28.0,70,44,18,30.06,29.95,10,3,0,0.00
2013-10-20,69.4,57.5,46.8,35.0,32.1,28.0,49,39,24,30.01,29.95,7,3,0,0.00
2013-10-21,69.9,57.3,48.1,38.0,35.4,32.0,57,45,27,30.03,29.95,8,2,0,0.00
2013-10-22,55.3,50.8,46.8,39.0,37.7,36.0,69,61,52,30.01,29.99,5,2,0,0.00
2013-10-29,46.1,39.2,31.8,26.0,22.7,18.0,71,53,41,29.99,29.94,6,2,0,0.00
2013-10-30,55.5,42.9,32.3,34.0,28.7,25.0,78,59,35,30.07,29.97,8,3,0,0.00
2013-10-31,59.8,48.4,39.8,47.0,40.1,33.0,89,74,59,30.14,30.03,10,2,0,0.00
2013-11-1,59.3,47.6,39.0,43.0,38.7,31.0,91,72,53,30.15,29.82,8,3,0,0.00
2013-11-2,52.9,42.7,31.5,43.0,33.3,24.0,90,70,50,29.93,29.64,29,8,0,0.01
2013-11-3,40.9,34.9,28.9,30.0,26.7,23.0,86,73,50,30.05,29.90,14,4,0,0.01
2013-11-4,45.4,37.9,32.4,32.0,29.1,27.0,83,71,51,30.09,30.00,15,3,0,0.00
2013-11-5,53.7,44.0,34.9,43.0,37.7,30.0,91,79,61,30.14,30.02,9,2,0,0.02
2013-11-6,54.6,47.1,40.4,44.0,41.8,37.0,92,82,67,30.18,30.02,6,2,0,0.02
2013-11-7,55.3,44.4,34.4,45.0,37.0,28.0,90,75,52,30.01,29.77,27,6,0,0.13
2013-11-8,44.8,38.5,32.9,34.0,30.2,27.0,90,73,59,30.10,30.00,6,2,0,0.13
2013-11-9,45.3,37.4,30.9,35.0,33.2,29.0,95,85,66,30.04,29.99,6,2,0,0.00
2013-11-10,59.7,44.8,36.9,43.0,37.9,33.0,91,78,53,30.06,29.99,6,1,0,0.00
2013-11-11,39.5,37.2,35.1,37.0,35.7,34.0,100,94,89,30.18,30.06,4,1,0,0.01
2013-11-12,59.6,47.0,34.9,46.0,40.4,34.0,96,80,52,30.28,30.15,14,3,0,0.01
2013-11-13,57.7,46.1,38.2,43.0,36.5,28.0,95,72,36,30.31,30.13,8,3,0,0.01
2013-11-14,46.8,38.9,32.8,34.0,28.4,25.0,85,67,47,30.12,29.95,22,6,0,0.00
2013-11-15,43.1,36.0,29.2,28.0,25.2,21.0,78,66,50,29.95,29.48,12,3,0,0.00
2013-11-16,45.4,40.4,34.3,30.0,28.2,23.0,79,63,45,29.73,29.37,33,11,0,0.00
2013-11-17,49.9,39.9,32.0,31.0,29.0,27.0,82,66,43,29.93,29.73,8,3,0,0.00
2013-11-18,51.9,43.0,35.9,37.0,32.7,29.0,83,68,48,29.90,29.66,23,6,0,0.00
2013-11-19,50.1,44.3,38.9,42.0,38.9,35.0,94,82,68,29.72,29.64,28,6,0,0.02
2013-11-20,41.1,29.7,20.5,40.0,18.9,-3.0,95,67,35,30.33,29.73,15,6,0,0.03
2013-11-21,31.6,23.3,17.8,5.0,1.3,-3.0,54,39,29,30.65,30.34,10,4,0,0.00
2013-11-22,33.9,23.8,12.6,12.0,8.6,4.0,70,53,37,30.68,30.58,7,2,0,0.00
2013-11-23,36.9,25.8,19.3,16.0,13.8,11.0,72,61,43,30.58,30.30,4,1,0,0.00
2013-11-24,55.6,36.1,24.0,21.0,17.4,14.0,67,49,21,30.30,30.19,6,2,0,0.00
2013-11-25,48.8,36.3,27.2,23.0,20.3,18.0,70,53,34,30.31,30.24,5,1,0,0.00
2013-11-26,49.8,36.3,28.5,25.0,22.1,20.0,71,58,36,30.26,30.09,5,1,0,0.00
2013-11-27,41.9,34.5,28.8,26.0,23.5,22.0,81,65,51,30.09,29.97,6,1,0,0.00
2013-11-28,52.1,36.6,25.3,30.0,26.1,23.0,90,68,41,30.14,30.05,6,1,0,0.00
2013-11-29,56.9,46.3,37.7,29.0,26.0,23.0,61,46,29,30.18,30.10,5,1,0,0.00
2013-11-30,55.4,46.2,40.2,37.0,33.7,28.0,73,62,48,30.23,30.11,7,2,0,0.00
2013-12-1,58.2,52.1,46.1,41.0,37.9,34.0,77,59,47,30.11,29.68,33,11,0,0.01
2013-12-2,49.3,35.7,26.4,39.0,29.2,16.0,94,78,61,29.85,29.63,25,8,0,0.02
2013-12-3,27.2,20.9,14.8,22.0,14.5,5.0,90,76,63,30.21,29.86,14,5,0,0.02
2013-12-4,20.5,14.5,7.8,5.0,3.0,1.0,74,61,47,30.30,30.20,9,4,0,0.00
2013-12-5,22.1,12.2,1.9,8.0,4.5,-2.0,83,72,53,30.30,30.17,6,2,0,0.00
2013-12-6,11.3,8.6,7.2,7.0,5.5,5.0,90,87,81,30.20,30.01,15,4,0,0.00
2013-12-7,8.3,4.1,-1.4,4.0,-1.6,-7.0,87,78,62,30.43,30.07,17,7,0,0.00
2013-12-8,19.5,8.5,-2.1,10.0,0.7,-8.0,89,71,50,30.62,30.43,6,2,0,0.01
2013-12-9,34.8,21.0,5.4,20.0,11.7,0.0,80,68,50,30.62,30.41,8,1,0,0.03
2013-12-10,40.6,30.5,22.1,27.0,21.7,16.0,84,70,56,30.41,30.31,8,2,0,0.03
2013-12-11,38.7,29.2,19.5,26.0,22.9,17.0,91,77,60,30.33,30.22,7,1,0,0.00
2013-12-12,39.1,30.1,20.1,29.0,22.3,17.0,88,74,55,30.22,30.08,7,3,0,0.00
2013-12-13,47.8,38.4,30.6,34.0,30.3,25.0,91,73,57,30.35,30.17,7,2,0,0.00
2013-12-14,48.8,38.1,29.7,32.0,27.8,21.0,85,68,35,30.36,30.31,8,2,0,0.00
2013-12-15,56.9,45.6,36.1,37.0,23.9,13.0,77,45,23,30.34,30.23,9,2,0,0.00
2013-12-16,55.5,44.4,36.3,27.0,23.4,11.0,60,44,25,30.31,30.19,8,1,0,0.00
2013-12-17,57.8,45.2,34.1,29.0,24.7,21.0,59,45,32,30.19,29.98,7,2,0,0.00
2013-12-18,46.4,39.0,30.9,32.0,27.3,23.0,92,65,42,29.98,29.79,11,2,0,0.00
2013-12-19,30.1,25.6,20.6,26.0,14.2,5.0,89,63,39,30.18,29.90,10,3,0,0.00
2013-12-20,48.5,35.0,22.2,38.0,23.9,4.0,82,65,38,30.11,29.77,32,4,0,0.03
2013-12-21,50.5,43.5,37.4,35.0,31.7,29.0,80,64,45,30.04,29.76,32,6,0,0.03
2013-12-22,53.8,44.5,37.9,38.0,33.9,27.0,77,67,36,30.22,30.04,14,3,0,0.00
2013-12-23,55.4,45.5,37.9,41.0,32.3,23.0,76,61,34,30.33,30.12,21,5,0,0.00
2013-12-24,46.6,36.2,29.0,31.0,27.9,22.0,88,73,50,30.44,30.34,6,2,0,0.00
2013-12-25,48.4,38.8,28.9,29.0,25.7,21.0,77,60,44,30.41,30.29,6,1,0,0.00
2013-12-26,57.3,44.1,33.8,30.0,26.4,23.0,69,51,32,30.29,30.15,6,2,0,0.00
2013-12-27,49.0,41.0,32.3,29.0,25.2,22.0,66,54,44,30.19,30.04,8,2,0,0.00
2013-12-28,46.7,39.3,31.1,31.0,20.1,14.0,69,48,28,30.36,30.19,8,2,0,0.00
2013-12-29,47.7,37.3,28.3,31.0,20.6,14.0,68,52,36,30.34,30.20,6,1,0,0.00
2013-12-30,46.8,40.9,33.7,32.0,27.8,22.0,77,60,41,30.20,30.08,6,1,0,0.00
2013-12-31,51.5,44.5,38.9,31.0,24.4,20.0,64,46,32,30.20,30.11,8,2,0,0.00
2014-1-1,48.9,40.6,35.4,33.0,30.8,28.0,81,69,54,30.25,30.18,5,1,0,0.00
2014-1-2,54.5,44.3,34.1,34.0,30.1,26.0,79,59,36,30.20,29.93,19,3,0,0.00